| time (UTC) | temp F | wind direction | speed knots | gust knots | rain 1hr in | rain 24hr in | rain mn in | humidity % | barometer mb |
| 20260507074604 | 0 | 0.0 | 0.0 | 0.00 | 0.00 | 0.00 | 1017.8 | ||
| 20260507073047 | 0 | 0.0 | 0.0 | 0.00 | 0.00 | 0.00 | 1017.9 | ||
| 20260507071538 | 0 | 0.0 | 0.0 | 0.00 | 0.00 | 0.00 | 1018.1 | ||
| 20260507070028 | 0 | 0.0 | 0.0 | 0.00 | 0.00 | 0.00 | 1018.1 | ||
| 20260507064516 | 0 | 0.0 | 0.0 | 0.00 | 0.00 | 0.00 | 1018.0 | ||
| 20260507063009 | 0 | 0.0 | 0.0 | 0.00 | 0.00 | 0.00 | 1018.2 | ||
| 20260507061505 | 0 | 0.0 | 0.0 | 0.00 | 0.00 | 0.00 | 1018.3 | ||
| 20260507054556 | 0 | 0.0 | 0.0 | 0.00 | 0.00 | 0.00 | 1018.2 | ||
| 20260507053102 | 0 | 0.0 | 0.0 | 0.00 | 0.00 | 0.00 | 1018.2 | ||
| 20260507051547 | 0 | 0.0 | 0.0 | 0.00 | 0.00 | 0.00 | 1018.1 | ||
| 20260507050030 | 0 | 0.0 | 0.0 | 0.00 | 0.00 | 0.00 | 1018.2 | ||
| 20260507044526 | 0 | 0.0 | 0.0 | 0.00 | 0.00 | 0.00 | 1018.2 | ||
| 20260507043009 | 0 | 0.0 | 0.0 | 0.00 | 0.00 | 0.00 | 1018.2 | ||
| 20260507041508 | 0 | 0.0 | 0.0 | 0.00 | 0.00 | 0.00 | 1018.1 | ||
| 20260507040050 | 0 | 0.0 | 0.0 | 0.00 | 0.00 | 0.00 | 1018.0 | ||
| 20260507034553 | 0 | 0.0 | 0.0 | 0.00 | 0.00 | 0.00 | 1017.9 | ||
| 20260507033044 | 0 | 0.0 | 0.0 | 0.00 | 0.00 | 0.00 | 1017.8 | ||
| 20260507031545 | 0 | 0.0 | 0.0 | 0.00 | 0.00 | 0.00 | 1017.6 | ||
| 20260507030015 | 0 | 0.0 | 0.0 | 0.00 | 0.00 | 0.00 | 1017.5 | ||
| 20260507024514 | 0 | 0.0 | 0.0 | 0.00 | 0.00 | 0.00 | 1017.4 | ||
| 20260507023055 | 0 | 0.0 | 0.0 | 0.00 | 0.00 | 0.00 | 1017.2 | ||
| 20260507021557 | 0 | 0.0 | 0.0 | 0.00 | 0.00 | 0.00 | 1017.2 | ||
| 20260507020031 | 0 | 0.0 | 0.0 | 0.00 | 0.00 | 0.00 | 1017.0 | ||
| 20260507014539 | 0 | 0.0 | 0.0 | 0.00 | 0.00 | 0.00 | 1017.1 | ||
| 20260507013005 | 0 | 0.0 | 0.0 | 0.00 | 0.00 | 0.00 | 1017.2 | ||
| 20260507011504 | 0 | 325 | 10.4 | 12.2 | 0.00 | 0.00 | 0.00 | 1017.1 | |
| 20260507010044 | 0 | 256 | 3.5 | 9.6 | 0.00 | 0.00 | 0.00 | 1017.2 | |
| 20260507004535 | 0 | 332 | 4.3 | 11.3 | 0.00 | 0.00 | 0.00 | 1017.3 | |
| 20260507003012 | 0 | 319 | 6.1 | 13.9 | 0.00 | 0.00 | 0.00 | 1017.1 | |
| 20260507001513 | 0 | 343 | 6.1 | 14.8 | 0.00 | 0.00 | 0.00 | 1017.2 | |
| 20260507000049 | 0 | 308 | 4.3 | 12.2 | 0.00 | 0.00 | 0.00 | 1017.1 | |
| 20260506234552 | 0 | 298 | 5.2 | 11.3 | 0.00 | 0.00 | 0.00 | 1017.0 | |
| 20260506233021 | 0 | 308 | 5.2 | 15.6 | 0.00 | 0.00 | 0.00 | 1017.1 | |
| 20260506231519 | 0 | 299 | 7.0 | 13.9 | 0.00 | 0.00 | 0.00 | 1017.1 | |
| 20260506224551 | 0 | 297 | 4.3 | 11.3 | 0.00 | 0.00 | 0.00 | 1017.3 | |
| 20260506223028 | 0 | 321 | 7.0 | 12.2 | 0.00 | 0.00 | 0.00 | 1017.4 | |
| 20260506221524 | 0 | 276 | 6.1 | 13.9 | 0.00 | 0.00 | 0.00 | 1017.5 | |
| 20260506220002 | 0 | 328 | 6.1 | 13.0 | 0.00 | 0.00 | 0.00 | 1017.7 | |
| 20260506214559 | 0 | 41 | 6.1 | 13.0 | 0.00 | 0.00 | 0.00 | 1017.7 | |
| 20260506213039 | 0 | 311 | 7.8 | 17.4 | 0.00 | 0.00 | 0.00 | 1017.7 | |
| 20260506211532 | 0 | 352 | 5.2 | 13.0 | 0.00 | 0.00 | 0.00 | 1017.7 | |
| 20260506210016 | 0 | 322 | 6.1 | 17.4 | 0.00 | 0.00 | 0.00 | 1017.7 | |
| 20260506204505 | 0 | 270 | 4.3 | 14.8 | 0.00 | 0.00 | 0.00 | 1017.7 | |
| 20260506203044 | 0 | 318 | 7.8 | 14.8 | 0.00 | 0.00 | 0.00 | 1017.7 | |
| 20260506201540 | 0 | 325 | 7.0 | 13.0 | 0.00 | 0.00 | 0.00 | 1017.8 | |
| 20260506200020 | 0 | 301 | 7.8 | 15.6 | 0.00 | 0.00 | 0.00 | 1017.9 | |
| 20260506194520 | 0 | 319 | 6.1 | 12.2 | 0.00 | 0.00 | 0.00 | 1017.8 | |
| 20260506193001 | 0 | 334 | 2.6 | 12.2 | 0.00 | 0.00 | 0.00 | 1017.9 | |
| 20260506191502 | 0 | 311 | 3.5 | 13.0 | 0.00 | 0.00 | 0.00 | 1018.1 | |
| 20260506190044 | 0 | 305 | 3.5 | 12.2 | 0.00 | 0.00 | 0.00 | 1018.2 | |
| 20260506184549 | 0 | 266 | 3.5 | 7.8 | 0.00 | 0.00 | 0.00 | 1018.3 | |
| 20260506183024 | 0 | 266 | 4.3 | 10.4 | 0.00 | 0.00 | 0.00 | 1018.3 | |
| 20260506181524 | 0 | 281 | 3.5 | 7.8 | 0.00 | 0.00 | 0.00 | 1018.4 | |
| 20260506180012 | 0 | 285 | 3.5 | 9.6 | 0.00 | 0.00 | 0.00 | 1018.5 | |
| 20260506174504 | 0 | 330 | 3.5 | 8.7 | 0.00 | 0.00 | 0.00 | 1018.5 | |
| 20260506173117 | 0 | 293 | 4.3 | 10.4 | 0.00 | 0.00 | 0.00 | 1018.4 | |
| 20260506171538 | 0 | 305 | 0.9 | 7.8 | 0.00 | 0.00 | 0.00 | 1018.5 | |
| 20260506170017 | 0 | 252 | 1.7 | 6.1 | 0.00 | 0.00 | 0.00 | 1018.4 | |
| 20260506164517 | 0 | 325 | 0.9 | 5.2 | 0.00 | 0.00 | 0.00 | 1018.4 | |
| 20260506163106 | 0 | 319 | 1.7 | 5.2 | 0.00 | 0.00 | 0.00 | 1018.4 | |
| 20260506161636 | 0 | 1 | 1.7 | 5.2 | 0.00 | 0.00 | 0.00 | 1018.5 | |
| 20260506160035 | 0 | 257 | 0.9 | 3.5 | 0.00 | 0.00 | 0.00 | 1018.6 | |
| 20260506154530 | 0 | 256 | 0.9 | 3.5 | 0.00 | 0.00 | 0.00 | 1018.7 | |
| 20260506153009 | 0 | 255 | 0.9 | 2.6 | 0.00 | 0.00 | 0.00 | 1018.6 | |
| 20260506151505 | 0 | 263 | 0.9 | 2.6 | 0.00 | 0.00 | 0.00 | 1018.8 | |
| 20260506150044 | 0 | 328 | 0.0 | 1.7 | 0.00 | 0.00 | 0.00 | 1018.7 | |
| 20260506144542 | 0 | 0.0 | 0.0 | 0.00 | 0.00 | 0.00 | 1018.7 | ||
| 20260506143026 | 0 | 328 | 0.0 | 0.9 | 0.00 | 0.00 | 0.00 | 1018.6 | |
| 20260506141518 | 0 | 327 | 0.0 | 0.0 | 0.00 | 0.00 | 0.00 | 1018.5 | |
| 20260506140015 | 0 | 328 | 0.0 | 0.0 | 0.00 | 0.00 | 0.00 | 1018.3 | |
| 20260506134509 | 0 | 0.0 | 0.0 | 0.00 | 0.00 | 0.00 | 1018.1 | ||
| 20260506133006 | 0 | 0.0 | 0.0 | 0.00 | 0.00 | 0.00 | 1017.8 | ||
| 20260506131604 | 0 | 0.0 | 0.0 | 0.00 | 0.00 | 0.00 | 1017.7 | ||
| 20260506130131 | 0 | 0.0 | 0.0 | 0.00 | 0.00 | 0.00 | 1017.7 | ||
| 20260506124558 | 0 | 0.0 | 0.0 | 0.00 | 0.00 | 0.00 | 1017.8 | ||
| 20260506123048 | 0 | 0.0 | 0.0 | 0.00 | 0.00 | 0.00 | 1017.9 | ||
| 20260506121526 | 0 | 0.0 | 0.0 | 0.00 | 0.00 | 0.00 | 1017.7 | ||
| 20260506120022 | 0 | 0.0 | 0.0 | 0.00 | 0.00 | 0.00 | 1017.8 | ||
| 20260506114558 | 0 | 0.0 | 0.0 | 0.00 | 0.00 | 0.00 | 1017.7 | ||
| 20260506113057 | 0 | 0.0 | 0.0 | 0.00 | 0.00 | 0.00 | 1017.8 | ||
| 20260506111532 | 0 | 0.0 | 0.0 | 0.00 | 0.00 | 0.00 | 1017.7 | ||
| 20260506110030 | 0 | 0.0 | 0.0 | 0.00 | 0.00 | 0.00 | 1017.6 | ||
| 20260506104506 | 0 | 0.0 | 0.0 | 0.00 | 0.00 | 0.00 | 1017.7 | ||
| 20260506103002 | 0 | 0.0 | 0.0 | 0.00 | 0.00 | 0.00 | 1017.6 | ||
| 20260506101551 | 0 | 0.0 | 0.0 | 0.00 | 0.00 | 0.00 | 1017.7 | ||
| 20260506100057 | 0 | 0.0 | 0.0 | 0.00 | 0.00 | 0.00 | 1017.6 | ||
| 20260506094522 | 0 | 0.0 | 0.0 | 0.00 | 0.00 | 0.00 | 1017.7 | ||
| 20260506093014 | 0 | 0.0 | 0.0 | 0.00 | 0.00 | 0.00 | 1017.8 | ||
| 20260506091548 | 0 | 0.0 | 0.0 | 0.00 | 0.00 | 0.00 | 1017.7 | ||
| 20260506090045 | 0 | 0.0 | 0.0 | 0.00 | 0.00 | 0.00 | 1017.8 | ||
| 20260506084523 | 0 | 0.0 | 0.0 | 0.00 | 0.00 | 0.00 | 1017.9 | ||
| 20260506083018 | 0 | 0.0 | 0.0 | 0.00 | 0.00 | 0.00 | 1017.9 | ||
| 20260506081600 | 0 | 0.0 | 0.0 | 0.00 | 0.00 | 0.00 | 1018.0 |